Simultaneous Nadir Overpasses (SNOs) Predictions

Prediction of SNOs between NOAA-21 and PACE Satellite Orbit:

Table of predicted SNOs for the next 14.0 days since TLE Epoch: 9/14/2024
Index Date (NOAA-21) Time (NOAA-21) Lat,Lon (NOAA-21) SZA (NOAA-21 ) Date (PACE) Time (PACE) Lat,Lon (PACE) SZA (PACE ) Distance(km) Time Diff (sec)
1 09/15/2024 03:44:55 -79.84, -93.57 101.08 09/15/2024 03:45:12 -79.84, -93.63 101.08 1.40 17
2 09/17/2024 07:20:45 79.94, 31.52 79.91 09/17/2024 07:21:30 79.94, 31.59 79.88 1.33 45
3 09/17/2024 08:11:24 -79.77,-159.56 100.38 09/17/2024 08:10:34 -79.77,-159.41 100.38 3.06 50
4 09/19/2024 10:56:31 -79.96, 157.37 99.25 09/19/2024 10:57:44 -79.97, 157.30 99.27 1.57 73
5 09/19/2024 11:47:11 79.80, -33.70 80.47 09/19/2024 11:46:48 79.79, -33.63 80.46 1.75 23
6 09/21/2024 15:22:58 -79.86, 91.75 98.61 09/21/2024 15:23:01 -79.85, 91.85 98.63 2.13 3
7 09/23/2024 18:58:44 79.88,-142.34 82.24 09/23/2024 18:59:11 79.87,-142.36 82.22 0.49 27
8 09/23/2024 19:49:24 -79.74, 26.29 98.00 09/23/2024 19:48:16 -79.73, 26.39 97.99 2.12 68
9 09/25/2024 22:34:30 -79.93, -16.81 96.86 09/25/2024 22:35:20 -79.93, -16.79 96.88 0.46 50



Historial Predications of SNOs between NOAA-21 and PACE
